SKYSAT-C9

Last updated on Wed Sep 17 2025 00:02:31 GMT+0000 (Coordinated Universal Time)

1 42989U 17068C 25259.07736364 .00009511 00000+0 28621-3 0 9990 2 42989 97.4094 28.8381 0011573 65.0407 295.2037 15.34517377440634
UTC large
Height (km)
Speed (km/s)
/
Latitude / Longitude
Inclination (degrees)
Orbital Period (minutes)
Azimuth
Elevation
Range (km)
Doppler Factor

Next 0 passes for location: London (51.5072 / 0.1276)

Sorry there are no passes over London.